This is the latest recevied weather packets stored in our database for station/object DO1SC. If no packets are shown the sender has not sent any weather packets the latest 10 day(s).
| Time | Temp. | Humidity | Pressure | Rain* | Wind** | Luminosity | Snow |
|---|---|---|---|---|---|---|---|
| 1777152336 | 10° C | 41% | 1018.3 hPa | - | - | 0 W/m² | - |
| 1777151728 | 10° C | 41% | 1018.2 hPa | - | - | 0 W/m² | - |
| 1777151120 | 10° C | 40% | 1018.1 hPa | - | - | 0 W/m² | - |
| 1777150531 | 10.56° C | 41% | 1018 hPa | - | - | 0 W/m² | - |
| 1777149923 | 10° C | 42% | 1017.9 hPa | - | - | 0 W/m² | - |
| 1777149335 | 10° C | 47% | 1017.9 hPa | - | - | 0 W/m² | - |
| 1777148726 | 10° C | 48% | 1017.7 hPa | - | - | 0 W/m² | - |
| 1777148117 | 10° C | 47% | 1017.7 hPa | - | - | 0 W/m² | - |
| 1777147529 | 9.44° C | 48% | 1017.7 hPa | - | - | 0 W/m² | - |
| 1777146921 | 10° C | 48% | 1017.6 hPa | - | - | 0 W/m² | - |
| 1777146333 | 10° C | 46% | 1017.8 hPa | - | - | 0 W/m² | - |
| 1777145725 | 10.56° C | 45% | 1017.7 hPa | - | - | 0 W/m² | - |
| 1777145136 | 10.56° C | 44% | 1017.7 hPa | - | - | 0 W/m² | - |
| 1777144530 | 11.11° C | 43% | 1017.6 hPa | - | - | 0 W/m² | - |
| 1777143919 | 11.67° C | 42% | 1017.6 hPa | - | - | 0 W/m² | - |
| 1777143330 | 11.67° C | 40% | 1017.4 hPa | - | - | 0 W/m² | - |
| 1777142722 | 11.67° C | 39% | 1017.3 hPa | - | - | 0 W/m² | - |
| 1777142133 | 12.22° C | 38% | 1017.1 hPa | - | - | 1 W/m² | - |
| 1777141525 | 12.78° C | 36% | 1017 hPa | - | - | 3 W/m² | - |
| 1777140920 | 13.33° C | 35% | 1016.9 hPa | - | - | 6 W/m² | - |
| 1777140328 | 13.33° C | 34% | 1016.8 hPa | - | - | 10 W/m² | - |
| 1777139719 | 13.89° C | 34% | 1016.8 hPa | - | - | 13 W/m² | - |
| 1777139135 | 14.44° C | 34% | 1016.6 hPa | - | - | 17 W/m² | - |
| 1777138523 | 14.44° C | 33% | 1016.5 hPa | - | - | 20 W/m² | - |
| 1777137935 | 15° C | 33% | 1016.5 hPa | - | - | 23 W/m² | - |
* Rain since midnight (hover to see other rain measurements)
** Current wind speed in m/s (hover to see current wind gust speed)